DW4379 Weather Reports


Display with metric or nautical units.
time (UTC)temp
F
wind
direction
speed
MPH
gust
MPH
rain 1hr
in
rain 24hr
in
rain mn
in
humidity
%
barometer
mb
20260510160503 67 1 1.0 6.0 0.00 0.00 0.00 46 1016.7
20260510160218 67 360 2.0 7.0 0.00 0.00 0.00 45 1016.7
20260510155503 67 356 2.0 7.0 0.00 0.00 0.00 46 1016.7
20260510155003 67 1 2.0 7.0 0.00 0.00 0.00 51 1016.4
20260510154717 67 359 2.0 7.0 0.00 0.00 0.00 49 1016.3
20260510154003 66 357 2.0 6.0 0.00 0.00 0.00 49 1016.2
20260510153503 66 1 2.0 6.0 0.00 0.00 0.00 48 1016.2
20260510153218 67 6 2.0 5.0 0.00 0.00 0.00 49 1016.1
20260510152503 66 6 1.0 4.0 0.00 0.00 0.00 50 1016.2
20260510152003 66 350 1.0 3.0 0.00 0.00 0.00 54 1016.2
20260510151503 65 11 2.0 6.0 0.00 0.00 0.00 53 1016.1
20260510151003 65 21 2.0 6.0 0.00 0.00 0.00 51 1016.1
20260510150503 65 24 1.0 4.0 0.00 0.00 0.00 53 1016.3
20260510150003 64 20 1.0 5.0 0.00 0.00 0.00 55 1016.5
20260510145503 64 24 2.0 6.0 0.00 0.00 0.00 52 1016.5
20260510145003 64 17 2.0 6.0 0.00 0.00 0.00 52 1016.4
20260510144718 64 12 2.0 6.0 0.00 0.00 0.00 54 1016.5
20260510144003 64 21 1.0 4.0 0.00 0.00 0.00 55 1016.2
20260510143503 64 29 2.0 7.0 0.00 0.00 0.00 56 1016.1
20260510143003 64 22 2.0 7.0 0.00 0.00 0.00 55 1016.2
20260510142503 64 360 1.0 5.0 0.00 0.00 0.00 56 1016.0
20260510142003 63 22 1.0 5.0 0.00 0.00 0.00 57 1016.0
20260510141503 62 57 2.0 6.0 0.00 0.00 0.00 59 1016.0
20260510141004 62 45 2.0 6.0 0.00 0.00 0.00 58 1015.9
20260510140503 62 35 2.0 6.0 0.00 0.00 0.00 57 1015.9
20260510140004 62 41 1.0 4.0 0.00 0.00 0.00 56 1015.8
20260510135503 62 21 1.0 5.0 0.00 0.00 0.00 61 1015.9
20260510135003 62 41 2.0 5.0 0.00 0.00 0.00 58 1015.9
20260510134503 61 52 2.0 8.0 0.00 0.00 0.00 60 1015.8
20260510134003 61 40 2.0 8.0 0.00 0.00 0.00 59 1015.8
20260510133718 61 42 2.0 6.0 0.00 0.00 0.00 60 1015.8
20260510133003 61 18 2.0 5.0 0.00 0.00 0.00 61 1015.6
20260510132503 61 18 2.0 5.0 0.00 0.00 0.00 61 1015.3
20260510132003 60 17 2.0 5.0 0.00 0.00 0.00 63 1015.4
20260510131503 60 5 2.0 6.0 0.00 0.00 0.00 64 1015.4
20260510131003 60 11 2.0 6.0 0.00 0.00 0.00 64 1015.5
20260510130503 60 9 2.0 6.0 0.00 0.00 0.00 66 1015.6
20260510130003 60 3 2.0 6.0 0.00 0.00 0.00 65 1015.4
20260510125503 60 6 2.0 4.0 0.00 0.00 0.00 65 1015.3
20260510125003 60 17 1.0 4.0 0.00 0.05 0.00 66 1015.2
20260510124503 59 11 1.0 5.0 0.00 0.05 0.00 66 1015.2
20260510124218 59 13 1.0 5.0 0.00 0.05 0.00 67 1015.2
20260510123503 59 10 2.0 4.0 0.00 0.05 0.00 67 1015.1
20260510123003 59 10 1.0 4.0 0.00 0.05 0.00 67 1014.9
20260510122503 58 6 1.0 5.0 0.00 0.05 0.00 69 1014.6
20260510122003 58 2 2.0 5.0 0.00 0.05 0.00 68 1014.5
20260510121503 58 2 2.0 5.0 0.00 0.05 0.00 69 1014.5
20260510121218 58 2 2.0 5.0 0.00 0.05 0.00 69 1014.4
20260510120503 58 359 1.0 4.0 0.00 0.05 0.00 69 1014.5
20260510120222 58 355 2.0 5.0 0.00 0.05 0.00 70 1014.3
20260510115504 58 356 2.0 5.0 0.00 0.05 0.00 69 1014.1
20260510115003 58 357 1.0 3.0 0.00 0.05 0.00 70 1013.9
20260510114503 57 355 1.0 3.0 0.00 0.05 0.00 70 1013.9
20260510114003 57 354 1.0 3.0 0.00 0.05 0.00 71 1013.8
20260510113503 57 358 1.0 4.0 0.00 0.05 0.00 71 1013.5
20260510113003 57 359 1.0 4.0 0.00 0.05 0.00 71 1013.1
20260510112717 57 358 0.0 4.0 0.00 0.05 0.00 71 1013.0
20260510112003 57 359 0.0 2.0 0.00 0.05 0.00 71 1012.9
20260510111503 56 8 0.0 1.0 0.00 0.05 0.00 71 1012.9
20260510111003 56 8 0.0 1.0 0.00 0.05 0.00 71 1012.7
20260510110717 56 8 0.0 1.0 0.00 0.05 0.00 71 1012.7
20260510110004 57 7 0.0 2.0 0.00 0.05 0.00 70 1012.5
20260510105503 57 2 0.0 3.0 0.00 0.05 0.00 70 1012.4
20260510105003 57 360 0.0 3.0 0.00 0.05 0.00 71 1012.3
20260510104503 57 354 0.0 3.0 0.00 0.05 0.00 71 1012.1
20260510104218 57 355 1.0 3.0 0.00 0.05 0.00 71 1012.0
20260510103503 57 357 1.0 4.0 0.00 0.05 0.00 72 1011.8
20260510103003 57 358 1.0 3.0 0.00 0.05 0.00 72 1011.8
20260510102503 57 357 1.0 3.0 0.00 0.05 0.00 72 1011.8
20260510102003 58 356 0.0 3.0 0.00 0.05 0.00 72 1011.8
20260510101503 58 349 0.0 1.0 0.00 0.05 0.00 72 1011.6
20260510101217 58 349 0.0 1.0 0.00 0.05 0.00 72 1011.6
20260510100503 58 356 1.0 2.0 0.00 0.05 0.00 73 1011.4
20260510100003 58 3 1.0 3.0 0.00 0.05 0.00 73 1011.3
20260510095719 58 4 1.0 3.0 0.00 0.05 0.00 73 1011.2
20260510095003 59 359 2.0 4.0 0.00 0.05 0.00 74 1011.1
20260510094503 59 2 2.0 4.0 0.00 0.05 0.00 73 1011.1
20260510094003 59 1 1.0 4.0 0.00 0.05 0.00 74 1011.0
20260510093503 59 357 1.0 4.0 0.00 0.05 0.00 74 1010.9
20260510093217 59 357 1.0 4.0 0.00 0.05 0.00 74 1010.7
20260510092503 59 10 1.0 4.0 0.00 0.05 0.00 75 1010.5
20260510092003 59 8 0.0 3.0 0.00 0.05 0.00 76 1010.4
20260510091503 59 355 0.0 3.0 0.00 0.05 0.00 76 1010.5
20260510091003 59 353 0.0 3.0 0.00 0.05 0.00 76 1010.5
20260510090503 59 355 0.0 1.0 0.00 0.05 0.00 78 1010.5
20260510090003 59 355 0.0 1.0 0.00 0.05 0.00 79 1010.3
20260510085718 59 355 0.0 1.0 0.00 0.05 0.00 78 1010.2
20260510085003 60 0 0.0 0.0 0.00 0.05 0.00 77 1010.3
20260510084718 60 0 0.0 0.0 0.00 0.05 0.00 77 1010.4
20260510084003 61 0 0.0 0.0 0.00 0.05 0.00 78 1010.4
20260510083503 61 5 0.0 1.0 0.00 0.05 0.00 77 1010.4
20260510083003 61 59 0.0 2.0 0.00 0.05 0.00 76 1010.4
20260510082503 61 53 1.0 2.0 0.00 0.05 0.00 76 1010.3
20260510082217 61 55 1.0 2.0 0.00 0.05 0.00 76 1010.3
20260510081718 61 274 0.0 2.0 0.00 0.05 0.00 76 1010.5
20260510081003 62 0 0.0 0.0 0.00 0.05 0.00 76 1010.9
20260510080718 62 236 0.0 1.0 0.00 0.05 0.00 76 1011.1
20260510080003 62 235 0.0 2.0 0.00 0.05 0.00 74 1011.2
20260510075503 62 222 0.0 1.0 0.00 0.05 0.00 74 1011.2
20260510075003 62 222 0.0 1.0 0.00 0.05 0.00 73 1011.4
20260510074503 62 246 0.0 1.0 0.00 0.05 0.00 73 1011.4
20260510074003 62 246 0.0 1.0 0.00 0.05 0.00 73 1011.4
20260510073503 62 263 0.0 1.0 0.00 0.05 0.00 72 1011.2
20260510073003 62 263 0.0 1.0 0.00 0.05 0.00 74 1011.1
20260510072503 62 265 0.0 1.0 0.00 0.05 0.00 75 1010.8
20260510072218 62 265 0.0 1.0 0.00 0.05 0.00 74 1010.6
20260510071503 62 0 0.0 0.0 0.00 0.05 0.00 76 1010.4
20260510071003 62 0 0.0 0.0 0.00 0.05 0.00 78 1010.3
20260510070503 62 0 0.0 0.0 0.00 0.05 0.00 79 1010.2
20260510070004 62 0 0.0 0.0 0.00 0.05 0.00 80 1010.2
20260510065503 62 0 0.0 0.0 0.00 0.05 0.00 81 1010.2
20260510065003 61 0 0.0 0.0 0.00 0.05 0.00 83 1010.1
20260510064717 61 0 0.0 0.0 0.00 0.05 0.00 84 1010.2
20260510064003 61 0 0.0 0.0 0.00 0.05 0.00 86 1010.0
20260510063503 61 0 0.0 0.0 0.00 0.05 0.00 86 1009.8
20260510063003 62 0 0.0 0.0 0.00 0.05 0.00 86 1009.7
20260510062503 62 0 0.0 0.0 0.00 0.05 0.00 85 1009.6
20260510062003 62 0 0.0 0.0 0.00 0.05 0.00 85 1009.5
20260510061504 62 0 0.0 0.0 0.00 0.05 0.00 85 1009.5
20260510061218 62 0 0.0 0.0 0.00 0.05 0.00 85 1009.5
20260510060503 62 0 0.0 0.0 0.00 0.05 0.00 85 1009.5
20260510060004 62 0 0.0 0.0 0.00 0.05 0.00 84 1009.5
20260510055504 62 0 0.0 0.0 0.00 0.05 0.00 84 1009.5
20260510055003 63 0 0.0 0.0 0.00 0.05 0.00 84 1009.4
20260510054503 63 0 0.0 0.0 0.00 0.05 0.00 83 1009.4
20260510054003 63 0 0.0 0.0 0.00 0.05 0.00 83 1009.3
20260510053503 63 0 0.0 0.0 0.00 0.05 0.00 83 1009.3
20260510053003 63 0 0.0 0.0 0.00 0.05 0.00 83 1009.2
20260510052503 63 0 0.0 0.0 0.00 0.05 0.00 83 1009.3
20260510052218 63 0 0.0 0.0 0.00 0.05 0.00 83 1009.3
20260510051503 63 0 0.0 0.0 0.00 0.05 0.00 83 1009.2
20260510051218 63 0 0.0 0.0 0.00 0.05 0.00 83 1009.2
20260510050503 63 0 0.0 0.0 0.00 0.05 0.00 83 1009.2
20260510050218 63 0 0.0 0.0 0.00 0.05 0.00 83 1009.1
20260510045719 63 219 0.0 1.0 0.00 0.05 0.00 83 1009.2
20260510045003 63 341 0.0 1.0 0.00 0.05 0.00 83 1009.0
20260510044503 63 359 0.0 1.0 0.00 0.05 0.00 83 1009.1
20260510044004 63 278 0.0 1.0 0.00 0.05 0.00 83 1009.1
20260510043503 63 0 0.0 0.0 0.00 0.05 0.00 83 1008.9
20260510043003 63 0 0.0 0.0 0.00 0.05 0.00 83 1008.9
20260510042503 63 0 0.0 0.0 0.00 0.05 0.00 82 1008.8
20260510042003 63 0 0.0 0.0 0.00 0.05 0.00 83 1008.8
20260510041718 63 0 0.0 0.0 0.00 0.05 0.00 82 1008.8
20260510041217 63 0 0.0 0.0 0.00 0.05 0.00 83 1008.9
20260510040503 63 0 0.0 0.0 0.00 0.05 0.00 82 1008.9
20260510040006 63 0 0.0 0.0 0.00 0.05 0.00 82 1008.9
20260510035503 63 0 0.0 0.0 0.00 0.05 0.00 82 1009.0
20260510035003 64 0 0.0 0.0 0.00 0.05 0.00 81 1008.9
20260510034503 64 0 0.0 0.0 0.00 0.05 0.00 81 1008.8
20260510034003 64 0 0.0 0.0 0.00 0.05 0.00 80 1008.9
20260510033503 64 0 0.0 0.0 0.00 0.05 0.00 80 1008.9
20260510033003 64 0 0.0 0.0 0.00 0.05 0.00 80 1008.8
20260510032503 64 0 0.0 0.0 0.00 0.05 0.00 80 1008.7
20260510032003 64 0 0.0 0.0 0.00 0.05 0.00 80 1008.7
20260510031503 64 0 0.0 0.0 0.00 0.05 0.00 80 1008.8
20260510031003 64 0 0.0 0.0 0.00 0.05 0.00 80 1008.9
20260510030503 65 0 0.0 0.0 0.00 0.05 0.00 80 1009.0
20260510030004 65 0 0.0 0.0 0.00 0.05 0.00 80 1008.9
20260510025718 65 0 0.0 0.0 0.00 0.05 0.00 80 1008.9
20260510025003 65 0 0.0 0.0 0.00 0.05 0.00 80 1008.7
20260510024503 65 0 0.0 0.0 0.00 0.05 0.00 79 1008.8
20260510024003 65 0 0.0 0.0 0.00 0.05 0.00 79 1008.7
20260510023718 66 0 0.0 0.0 0.00 0.05 0.00 79 1008.6
20260510023003 66 0 0.0 0.0 0.00 0.05 0.00 79 1008.5
20260510022503 66 0 0.0 0.0 0.00 0.05 0.00 78 1008.5
20260510022003 66 0 0.0 0.0 0.00 0.05 0.00 78 1008.5
20260510021503 66 0 0.0 0.0 0.00 0.05 0.00 78 1008.3
20260510021003 66 0 0.0 0.0 0.00 0.05 0.00 78 1008.2
20260510020503 67 0 0.0 0.0 0.00 0.05 0.00 78 1008.2
20260510020218 67 0 0.0 0.0 0.00 0.05 0.00 78 1008.1
20260510015503 67 0 0.0 0.0 0.00 0.05 0.00 77 1008.0
20260510015003 67 0 0.0 0.0 0.00 0.05 0.00 77 1008.0
20260510014503 67 0 0.0 0.0 0.00 0.05 0.00 76 1008.0
20260510014003 68 0 0.0 0.0 0.00 0.05 0.00 76 1007.8
20260510013503 68 0 0.0 0.0 0.00 0.05 0.00 76 1007.8
20260510013003 68 0 0.0 0.0 0.00 0.05 0.00 76 1007.6
20260510012504 68 0 0.0 0.0 0.00 0.05 0.00 75 1007.6
20260510012003 69 0 0.0 0.0 0.00 0.05 0.00 75 1007.5
20260510011503 69 0 0.0 0.0 0.00 0.05 0.00 75 1007.5
20260510011003 70 0 0.0 0.0 0.00 0.05 0.00 74 1007.3
20260510010503 70 0 0.0 0.0 0.00 0.05 0.00 73 1007.3
20260510010003 70 0 0.0 0.0 0.00 0.05 0.00 72 1007.3
20260510005503 71 0 0.0 0.0 0.00 0.05 0.00 71 1007.3
20260510005003 71 0 0.0 0.0 0.00 0.05 0.00 70 1007.4
20260510004503 72 0 0.0 0.0 0.00 0.05 0.00 70 1007.3
20260510004003 72 0 0.0 0.0 0.00 0.05 0.00 69 1007.2
20260510003503 72 242 0.0 1.0 0.00 0.05 0.00 68 1007.2
20260510003004 72 241 0.0 1.0 0.00 0.05 0.00 67 1007.2
20260510002503 73 239 0.0 1.0 0.00 0.05 0.00 66 1007.2
20260510002003 73 234 0.0 1.0 0.00 0.05 0.00 66 1007.1
20260510001503 73 234 0.0 1.0 0.00 0.05 0.00 65 1007.1
20260510001003 73 0 0.0 0.0 0.00 0.05 0.00 65 1007.0
20260510000503 74 0 0.0 0.0 0.00 0.05 0.00 63 1006.8
20260510000003 74 0 0.0 0.0 0.00 0.05 0.00 63 1006.8
20260509235717 74 0 0.0 0.0 0.00 0.05 0.00 62 1006.8
20260509235003 74 239 0.0 2.0 0.00 0.05 0.00 62 1006.9
20260509234503 74 239 0.0 2.0 0.00 0.05 0.00 62 1006.8
20260509234003 74 0 0.0 0.0 0.00 0.05 0.00 61 1006.7
20260509233717 74 0 0.0 0.0 0.00 0.05 0.00 62 1006.7
20260509233003 75 0 0.0 0.0 0.00 0.05 0.00 60 1006.8
20260509232503 75 283 0.0 1.0 0.00 0.05 0.00 60 1006.7
20260509232003 75 271 0.0 1.0 0.00 0.05 0.00 60 1006.5
20260509231503 75 270 0.0 1.0 0.00 0.05 0.00 59 1006.5
20260509231003 75 280 0.0 1.0 0.00 0.05 0.00 60 1006.6
20260509230503 75 241 0.0 2.0 0.00 0.05 0.00 59 1006.7
20260509230217 75 241 0.0 2.0 0.00 0.05 0.00 59 1006.8
20260509225719 75 247 1.0 5.0 0.00 0.05 0.00 60 1006.7
20260509225003 75 248 1.0 5.0 0.00 0.05 0.00 58 1006.7
20260509224503 75 236 1.0 5.0 0.00 0.05 0.00 59 1006.7
20260509224004 75 230 1.0 5.0 0.00 0.05 0.00 59 1006.7
20260509223718 75 225 0.0 4.0 0.00 0.05 0.00 59 1006.6
20260509223003 75 239 0.0 3.0 0.00 0.05 0.00 59 1006.6
20260509222503 75 244 0.0 2.0 0.00 0.05 0.00 59 1006.6
20260509222003 75 251 0.0 4.0 0.00 0.05 0.00 60 1006.5
20260509221503 75 256 0.0 4.0 0.00 0.05 0.00 59 1006.5
20260509221003 75 265 0.0 2.0 0.00 0.05 0.00 61 1006.5
20260509220503 75 227 1.0 3.0 0.00 0.05 0.00 62 1006.5
20260509220004 75 253 1.0 3.0 0.00 0.05 0.00 62 1006.5
20260509215503 75 282 1.0 3.0 0.00 0.05 0.00 61 1006.5
20260509215003 75 274 0.0 2.0 0.00 0.05 0.00 61 1006.6
20260509214503 75 251 0.0 4.0 0.00 0.05 0.00 63 1006.6
20260509214217 75 254 1.0 4.0 0.00 0.05 0.00 62 1006.6
20260509213718 75 249 1.0 5.0 0.00 0.05 0.00 61 1006.6
20260509213003 75 235 1.0 5.0 0.00 0.05 0.00 62 1006.5
20260509212503 75 254 1.0 5.0 0.00 0.05 0.00 64 1006.4
20260509212003 75 263 1.0 6.0 0.00 0.05 0.00 62 1006.5
20260509211718 75 263 1.0 6.0 0.00 0.05 0.00 62 1006.6
20260509211003 75 280 0.0 2.0 0.00 0.05 0.00 62 1006.5
20260509210503 75 252 1.0 3.0 0.00 0.05 0.00 62 1006.5
20260509210003 75 255 1.0 3.0 0.00 0.05 0.00 65 1006.5
20260509205503 74 270 1.0 7.0 0.00 0.05 0.00 65 1006.4
20260509205217 74 269 1.0 7.0 0.00 0.05 0.00 65 1006.4
20260509204504 74 274 1.0 4.0 0.00 0.05 0.00 63 1006.4
20260509204003 74 269 1.0 5.0 0.00 0.05 0.00 65 1006.4
20260509203718 74 257 2.0 8.0 0.00 0.05 0.00 63 1006.3
20260509203003 74 247 1.0 8.0 0.00 0.05 0.00 63 1006.3
20260509202503 74 227 1.0 6.0 0.00 0.05 0.00 65 1006.3
20260509202003 74 234 1.0 6.0 0.00 0.05 0.00 64 1006.3
20260509201503 74 255 1.0 4.0 0.00 0.05 0.00 65 1006.4
20260509201218 74 245 1.0 4.0 0.00 0.05 0.00 63 1006.4
20260509200503 73 223 1.0 7.0 0.00 0.05 0.00 66 1006.6
20260509200218 74 221 1.0 7.0 0.00 0.05 0.00 64 1006.6
20260509195503 74 232 1.0 4.0 0.00 0.05 0.00 64 1006.7
20260509195003 74 230 0.0 3.0 0.00 0.05 0.00 66 1006.8
20260509194503 74 243 1.0 5.0 0.00 0.05 0.00 65 1006.8
20260509194003 73 245 1.0 5.0 0.00 0.05 0.00 65 1006.8
20260509193503 74 241 1.0 5.0 0.00 0.05 0.00 66 1006.9
20260509193218 74 231 0.0 5.0 0.00 0.05 0.00 66 1006.8
20260509192503 73 223 1.0 4.0 0.00 0.05 0.00 66 1006.8
20260509192003 73 216 1.0 8.0 0.00 0.05 0.00 65 1006.8
20260509191503 73 232 1.0 8.0 0.00 0.05 0.00 66 1006.9
20260509191003 73 237 1.0 6.0 0.00 0.05 0.00 65 1006.9
20260509190503 73 225 1.0 4.0 0.00 0.05 0.00 66 1006.9
20260509190218 73 233 1.0 4.0 0.00 0.05 0.00 66 1006.9
20260509185503 73 222 1.0 4.0 0.00 0.05 0.00 66 1006.9
20260509185003 72 229 1.0 5.0 0.00 0.05 0.00 69 1007.0
20260509184503 72 251 1.0 5.0 0.00 0.05 0.00 68 1007.0
20260509184218 72 251 1.0 5.0 0.00 0.05 0.00 69 1007.1
20260509183504 72 215 0.0 3.0 0.00 0.05 0.00 71 1007.0
20260509183003 72 198 1.0 3.0 0.00 0.05 0.00 71 1006.9
20260509182503 71 204 1.0 5.0 0.00 0.05 0.00 71 1007.0
20260509182003 71 222 1.0 5.0 0.00 0.05 0.00 72 1007.1
20260509181503 70 234 1.0 4.0 0.00 0.05 0.00 73 1007.0
20260509181003 70 236 1.0 4.0 0.00 0.05 0.00 73 1007.0
20260509180503 70 230 1.0 6.0 0.00 0.05 0.00 73 1007.1
20260509180217 69 225 2.0 7.0 0.00 0.05 0.00 72 1007.1
20260509175503 70 204 1.0 7.0 0.00 0.05 0.00 75 1007.1
20260509175003 69 217 1.0 9.0 0.00 0.05 0.00 75 1007.1
20260509174503 69 216 1.0 9.0 0.00 0.05 0.00 75 1007.2
20260509174004 68 234 1.0 7.0 0.00 0.05 0.00 77 1007.3
20260509173503 68 225 1.0 7.0 0.00 0.05 0.00 75 1007.5
20260509173217 68 219 1.0 7.0 0.00 0.05 0.00 78 1007.5
20260509172503 67 188 1.0 4.0 0.00 0.05 0.00 78 1007.7
20260509172003 67 234 1.0 8.0 0.00 0.05 0.00 78 1007.8
20260509171503 67 229 2.0 8.0 0.00 0.05 0.00 78 1007.8
20260509171003 67 224 1.0 6.0 0.00 0.05 0.00 77 1007.8
20260509170504 67 238 1.0 6.0 0.00 0.05 0.00 78 1007.8
20260509170004 66 226 1.0 6.0 0.00 0.05 0.00 77 1007.8
20260509165503 66 163 1.0 5.0 0.00 0.05 0.00 81 1007.8
20260509165217 66 161 1.0 5.0 0.00 0.05 0.00 80 1007.8
20260509164504 65 223 1.0 4.0 0.00 0.05 0.00 82 1007.9
20260509164003 64 222 1.0 6.0 0.00 0.05 0.00 83 1007.9
20260509163503 64 214 1.0 6.0 0.00 0.05 0.00 84 1008.0
20260509163003 63 228 1.0 4.0 0.00 0.05 0.00 84 1008.0
20260509162718 63 227 1.0 8.0 0.00 0.05 0.00 85 1008.0
20260509162003 62 233 1.0 8.0 0.00 0.05 0.00 85 1008.0
20260509161503 62 238 1.0 3.0 0.00 0.05 0.00 87 1008.0
20260509161003 62 230 1.0 3.0 0.00 0.05 0.00 88 1008.1